Home > Weather > Welland > Past weeks

Flag for Canada Weather for the Past 2 Weeks in Welland, Ontario, Canada

Now
46 °F

Cool.


Feels Like: 43 °F
Forecast: 38 / 59 °F
Wind: 6 mph from North

Location: Burlington Piers

Current Time: Apr 29, 2016 at 8:36:21 PM

Latest Report: Apr 29, 2016 at 7:00 PM


Visibility: N/A

Pressure: 30.09 "Hg

Humidity: 47%

Dew Point: 27 °F

Location of WellandLocation

Historic Weather in Welland — Graph

°F

Welland Temperature Yesterday

Maximum temperature yesterday: 43 °F (at 12:00 AM)
Minimum temperature yesterday: 36 °F (at 7:00 AM)
Average temperature yesterday: 41 °F

High & Low Weather Summary for the Past Weeks

 TemperatureHumidityPressure
High77 °F (Apr 18, 6:00 PM)93% (Apr 22, 5:00 AM)30.49 "Hg (Apr 22, 5:00 AM)
Low36 °F (Apr 25, 4:00 PM)18% (Apr 17, 8:00 PM)29.79 "Hg (Apr 22, 4:00 AM)
Average45 °F62%30.16 "Hg
* Reported Apr 14 7:00 PM — Apr 29 7:00 PM, Welland, Weather by CustomWeather, © 2016

Note: Actual official high and low records may vary slightly from our data, if they occured in-between our weather recording intervals... More about our weather records

Advertising

Welland Weather History for the Previous 24 Hours

Scroll right to see more
 ConditionsComfort  
Time TempWeatherWind HumidityBarometerVisibility
7:00 PM
Fri, Apr 29
46 °FCool.6 mph47%30.09 "HgN/A
6:00 PM44 °FQuite cool.2 mph53%30.09 "HgN/A
5:00 PM43 °FQuite cool.1 mph58%30.08 "HgN/A
4:00 PM42 °FQuite cool.5 mph61%30.09 "HgN/A
3:00 PM41 °FQuite cool.6 mph65%30.10 "HgN/A
2:00 PM41 °FQuite cool.8 mph67%30.08 "HgN/A
1:00 PM42 °FQuite cool.12 mph59%30.07 "HgN/A
12:00 PM42 °FQuite cool.12 mph58%30.10 "HgN/A
11:00 AM42 °FQuite cool.15 mph54%30.11 "HgN/A
10:00 AM42 °FQuite cool.17 mph55%30.10 "HgN/A
9:00 AM42 °FQuite cool.21 mph58%30.09 "HgN/A
8:00 AM42 °FQuite cool.18 mph64%30.08 "HgN/A
7:00 AM42 °FQuite cool.18 mph69%30.09 "HgN/A
6:00 AM42 °FQuite cool.16 mph72%30.07 "HgN/A
5:00 AM42 °FQuite cool.16 mph72%30.06 "HgN/A
4:00 AM40 °FQuite cool.16 mph78%30.06 "HgN/A
3:00 AM42 °FQuite cool.15 mph74%30.07 "HgN/A
2:00 AM42 °FQuite cool.15 mph72%30.07 "HgN/A
1:00 AM42 °FQuite cool.15 mph66%30.08 "HgN/A
12:00 AM42 °FQuite cool.17 mph62%30.06 "HgN/A
11:00 PM
Thu, Apr 28
42 °FQuite cool.15 mph60%30.07 "HgN/A
10:00 PM42 °FQuite cool.16 mph62%30.08 "HgN/A
9:00 PM42 °FQuite cool.17 mph62%30.06 "HgN/A
8:00 PM42 °FQuite cool.17 mph65%30.07 "HgN/A
Weather by CustomWeather, © 2016

See weather overviewHow to use our weather pages